Home > Time Zones > World Clock > Weather > Norway > Ski > Past weeks

Flag for Norway Weather past 2 weeks in Ski, Norway

Now
N/A

Broken clouds.


Feels Like: N/A
Forecast: 48 / 67 °F
Wind: 23 mph from Southwest

Location: Oslo / Fornebu

Current Time: Sep 1, 2014 at 3:47:51 PM

Latest Report: Sep 1, 2014 at 2:50 PM


Visibility: N/A

Pressure: N/A

Humidity: N/A

Dew point: N/A

Location of SkiLocation

Historic Weather in Ski — Graph

°F

Ski temperature yesterday

Maximum temperature yesterday: 64 °F (at 2:20 PM)
Minimum temperature yesterday: 57 °F (at 9:20 PM)
Average temperature yesterday: 61 °F

Past Weeks' High & Low Weather Summary

 TemperatureHumidityPressure
High64 °F (Aug 31, 2:20 PM)100% (Aug 31, 9:20 PM)30.07 "Hg (Aug 31, 9:20 PM)
Low52 °F (Aug 18, 3:20 AM)63% (Aug 21, 2:50 PM)29.39 "Hg (Aug 17, 2:20 PM)
Average55 °F79%29.76 "Hg
* Reported Aug 17 2:20 PM — Sep 1 2:20 PM, Ski, Weather by CustomWeather, © 2014

Note: Actual official high and low records may vary slightly from our data, if they occured in-between our weather recording intervals... More about our weather records

Advertising

Ski weather history for previous 24 hours

 ConditionsComfort  
Time TempWeatherWind HumidityBarometerVisibility
2:20 PM
Sep 1
N/APartly sunny.22 mphN/AN/AN/A
1:50 PMN/APartly sunny.20 mphN/AN/AN/A
1:20 PMN/APartly sunny.20 mphN/AN/AN/A
12:50 PMN/AOvercast.15 mphN/AN/AN/A
12:20 PMN/AOvercast.14 mphN/AN/AN/A
11:50 AMN/APartly sunny.18 mphN/AN/AN/A
11:20 AMN/APartly sunny.20 mphN/AN/AN/A
10:50 AMN/APartly sunny.30 mphN/AN/AN/A
10:20 AMN/APartly sunny.35 mphN/AN/AN/A
9:50 AMN/APartly sunny.36 mphN/AN/AN/A
9:20 AMN/ALow clouds.36 mphN/AN/AN/A
8:50 AMN/ALow clouds.36 mphN/AN/AN/A
8:20 AMN/ABroken clouds.37 mphN/AN/AN/A
7:50 AMN/APartly sunny.37 mphN/AN/AN/A
7:20 AMN/APartly sunny.39 mphN/AN/AN/A
6:50 AMN/APassing clouds.38 mphN/AN/AN/A
6:20 AMN/APassing clouds.37 mphN/AN/AN/A
5:50 AMN/APartly cloudy.39 mphN/AN/AN/A
5:20 AMN/APassing clouds.40 mphN/AN/AN/A
4:50 AMN/APartly cloudy.N/AN/AN/AN/A
1:50 AM59 °FCool.N/A88%29.95 "HgN/A
1:20 AM59 °FCool.N/A94%29.95 "HgN/A
12:50 AM59 °FCool.N/A94%29.95 "HgN/A
12:20 AM57 °FCool.N/A100%29.95 "HgN/A
11:50 PM
Aug 31
57 °FCool.N/A94%29.95 "HgN/A
10:50 PM57 °FCool.N/A100%29.98 "HgN/A
10:20 PM57 °FCool.N/A100%29.98 "HgN/A
9:50 PM57 °FPassing clouds.32 mph100%29.98 "HgN/A
9:20 PM57 °FScattered clouds.30 mph100%29.98 "HgN/A
8:50 PM59 °FPartly sunny.29 mph94%29.98 "HgN/A
8:20 PM59 °FPassing clouds.28 mph94%29.98 "HgN/A
7:50 PM59 °FCool.30 mph88%29.98 "HgN/A
7:20 PM59 °FCool.30 mph88%29.98 "HgN/A
6:50 PM61 °FCool.29 mph83%29.98 "HgN/A
6:20 PM61 °FCool.28 mph83%29.98 "HgN/A
5:50 PM61 °FCool.24 mph83%29.98 "HgN/A
5:20 PM61 °FCool.22 mph83%29.98 "HgN/A
4:50 PM61 °FCool.23 mph83%29.98 "HgN/A
4:20 PM61 °FCool.20 mph83%30.01 "HgN/A
3:50 PM61 °FCool.17 mph83%30.01 "HgN/A
3:20 PM63 °FMild.17 mph77%30.01 "HgN/A
Weather by CustomWeather, © 2014

See weather overviewHow to use our weather pages